Weather in Ayamonte

Spain     37°13′05″N   7°23′41″W
temp.,
°C
wind,
m/s
gust,
m/s
humid.,
%
clouds,
%
prec.,
mm/h
press.,
hPa
HPBL,
m
9 may, sun
sun923:00+16sw3473100 0.0 101161
02:00+15wsw246944 0.0 1012114
05:00+12sw2291100 0.0 101022
08:00+14sw388925 0.0 1010285
11:00+15sw61191100 4.7 1010633
14:00+22w685549 8.6 10091716
17:00+24w7103343 0.1 10082717
20:00+21wnw774116 0.1 10101837
10 may, mon
mon1023:00+15wnw5106195 0.0 1013342
02:00+14wnw3771100 0.0 1013386
05:00+12wnw22830 0.0 101315
08:00+11w118199 0.0 101414
11:00+18sw465055 0.0 10141607
14:00+20sw7841100 0.2 10132345
17:00+19w684096 0.4 10132178
20:00+19wnw883911 0.4 10151988
11 may, tue
tue1123:00+14wnw510650 0.0 1018332
02:00+12wnw37750 0.0 1020164
05:00+10nw338229 0.0 102152
08:00+10nnw22829 0.0 102249
11:00+17nnw454710 0.0 10231530
14:00+20nw34336 0.0 10222232
17:00+21ssw75400 0.0 10211159
20:00+19sw88450 0.0 1021575
12 may, wed
wed1223:00+15nw711510 0.0 1023416
02:00+13nnw411670 0.0 1023306
05:00+11nnw38750 0.0 1021180
08:00+11nw23760 0.0 102279
11:00+19wnw35515 0.0 10221051
14:00+21wsw4552100 0.1 10201332
17:00+22wnw885077 0.1 10201712
20:00+22nw882724 0.1 10201450
13 may, thu
thu1323:00+15nw612683 0.0 1021452
02:00+13nnw511710 0.0 1022401
05:00+11nnw410820 0.0 1021262
08:00+10nnw39832 0.0 1021326
11:00+18nnw78493 0.0 1021932
14:00+23nw56385 0.0 10191524
17:00+25nw563676 0.0 10162152
20:00+22nw885011 0.0 10161453